Regional Weather Roundup
Issued by NWS Newport/Morehead, NC

Current Version | Previous Version | Graphics & Text | Print | Product List | Glossary Off
Versions: 1 2 3 4 5 6 7 8 9 10 11 12 13 14 15 16 17 18 19 20 21 22 23 24 25 26 27 28 29 30 31 32 33 34 35 36 37 38 39 40 41 42 43 44 45 46 47 48 49 50

973
ASUS42 KMHX 240325
RWRMHX
WEATHER ROUNDUP FOR EASTERN NORTH CAROLINA
NATIONAL WEATHER SERVICE NEWPORT/MOREHEAD CITY NC
1000 PM EST TUE JAN 23 2018

NOTE: "FAIR" INDICATES FEW OR NO CLOUDS BELOW 12,000 FEET
WITH NO SIGNIFICANT WEATHER AND/OR OBSTRUCTIONS TO VISIBILITY

NCZ015>017-031-032-045>047-102-103-240400-
NORTH COAST

CITY           SKY/WX    TMP DP  RH WIND       PRES   REMARKS
EDENTON        FAIR      59  35  40 NW8       29.88R
ELIZABETH CITY FAIR      52  44  74 W10       29.86R
KITTY HAWK     FAIR      51  51  99 CALM      29.85R
MANTEO         FAIR      50  50 100 NW5       29.86R

$$

NCZ045>047-081-094-103-104-240400-
CENTRAL COAST

CITY           SKY/WX    TMP DP  RH WIND       PRES   REMARKS
FRISCO         NOT AVBL

$$

NCZ095-097-098-100-101-240400-
SOUTHERN COAST

CITY           SKY/WX    TMP DP  RH WIND       PRES   REMARKS
BEAUFORT       FAIR      50 N/A N/A W6        29.91R
CEDAR ISLAND   NOT AVBL
JACKSONVILLE   FAIR      57  34  41 W13       29.92R
PINEY ISLAND   NOT AVBL
WILMINGTON     FAIR      54  38  54 W10       29.95R


$$

NCZ011>013-027>030-043-044-078>080-089-090>093-098-240400-
COASTAL PLAIN

CITY           SKY/WX    TMP DP  RH WIND       PRES   REMARKS
AHOSKIE        FAIR      53  29  40 W3        29.91R
CLINTON        FAIR      55  34  46 W9        29.95R
ELIZABETHTOWN  NOT AVBL
GOLDSBORO      FAIR      52  32  47 W9        29.90R
GREENVILLE     FAIR      55  32  41 W5        29.93R
HAVELOCK       NOT AVBL
KENANSVILLE    FAIR      55  32  41 W10       29.93R
KINSTON        NOT AVBL
NEW BERN       FAIR      57  33  40 W8        29.91R
RICHLANDS      FAIR      56  32  40 SW7       29.93R
ROCKY MOUNT    FAIR      53  29  39 W6        29.91R
WASHINGTON     FAIR      56  32  40 NW5       29.91R
WHITEVILLE     FAIR      56  33  41 W5        29.96R

$$

AMZ130-135-150-152-154-156-158-170-250-252-270-ANZ085-086-088-633-658-670-240400-
MARINE OBSERVATIONS

STATION/POSITION TIME  TEMP    WIND        PRES    WAVE   SWELL
                       AIR SEA DIR/SP/G            HT/PER HT/PER
                 (UTC) (F)     (DEG/KT/KT) (MB)    (FT/S) (FT/S)
CHESAPEAKE LIGHT NOT AVBL
64 E VA BEACH    0250   56 56  340/ 14/ 16 1010.3    8/ 8   7/ 8
DUCK             0300   58 42  300/ 10/ 12 1010.3
2 E DUCK         0300      42                N/A     3/ 8
OREGON INLET     0300   47 48  210/  7/  9 1011.0
13E OREGON INLT  0248      41                N/A     6/ 8   5/ 8
HATTERAS CG      0300   56 56  260/ 16/ 20 1011.3
DIAMOND BUOY     0310   65 70  260/ 21/ 27 1011.8
CAPE LOOKOUT     0300          270/ 15/ 17 1013.1
BEAUFORT LAB     0300   50 51  260/  3/  7 1012.9
30 SE NEW RVR IN 0308   60 58  270/ 16/ 21 1013.2
30 SE NEW RVR IN 0300      58                N/A     9/ 8
27 SE WRIGHTSVLE 0308   58 61  270/ 17/ 27 1013.7
5 SE WRIGHTSVLE  0308   53 47  280/  8/ 12 1013.5
225 S CAPE HAT   0250   72 70  230/ 16/ 23 1015.7    7/ 7   3/11
41 SE CHARLESTON 0310   65 69  280/ 21/ 27 1016.2

$$




USA.gov is the U.S. government's official web portal to all federal, state and local government web resources and services.